Sedona, AZ

3:22 AM MST on October 16, 2019 (GMT -0700)
Sedona

Weather History for KSEZ - August, 2019

Change the Weather History Date:

Friday, August 2, 2019

  Actual Average Record
Temperature  
Mean Temperature 83 °F -  
Max Temperature 98 °F 96 °F 98 °F (2019)
Min Temperature 68 °F 65 °F 62 °F (2014)
Cooling Degree Days 18    
Growing Degree Days 33 (Base 50)    
Moisture  
Dew Point 57 °F    
Average Humidity 50    
Maximum Humidity 88    
Minimum Humidity 23    
Precipitation  
Precipitation 0.15 in - - ()
Sea Level Pressure  
Sea Level Pressure 30.18 in    
Wind  
Wind Speed 9 mph (ENE)    
Max Wind Speed 18 mph    
Max Gust Speed 29 mph    
Visibility 10 miles    
Events Rain , Thunderstorm    
Averages and records for this station are not official NWS values.
T = Trace of Precipitation, MM = Missing Value Source: NWS Daily Summary

Daily Weather History Graph

Daily Weather History Graph

Search for Another Location

Airport or City:

Astronomy

Aug. 02, 2019 Rise Set
Actual Time 5:37 AM MST 7:28 PM MST
Civil Twilight 5:09 AM MST 7:56 PM MST
Nautical Twilight 4:36 AM MST 8:29 PM MST
Astronomical Twilight 4:00 AM MST 9:05 PM MST
Moon 7:18 AM MST (8/2) 9:03 PM MST (8/2)
Length of Visible Light 14h 46m
Length of Day
13h 51m
Waxing Crescent, 4% of the Moon is Illuminated
Aug 2
Waxing Crescent
Aug 7
First Quarter
Aug 15
Full
Aug 23
Last Quarter
Aug 30
New

Hourly Weather History & Observations

Time (MST) Temp. Heat Index Dew Point Humidity Pressure Visibility Wind Dir Wind Speed Gust Speed Precip Events Conditions
12:15 AM 73.4 °F - 57.2 °F 57% 30.18 in 10.0 mi NNE 11.5 mph - N/A   Clear
12:35 AM 73.4 °F - 57.2 °F 57% 30.17 in 10.0 mi NNE 11.5 mph - N/A   Clear
12:55 AM 73.4 °F - 57.2 °F 57% 30.17 in 10.0 mi NNE 11.5 mph - N/A   Clear
1:20 AM 73.4 °F - 55.4 °F 53% 30.17 in 10.0 mi NE 11.5 mph - N/A   Clear
1:35 AM 73.4 °F - 57.2 °F 57% 30.16 in 10.0 mi NNE 11.5 mph - N/A   Clear
1:55 AM 73.4 °F - 55.4 °F 53% 30.16 in 10.0 mi NE 12.7 mph - N/A   Clear
2:15 AM 73.4 °F - 55.4 °F 53% 30.16 in 10.0 mi NNE 9.2 mph - N/A   Clear
2:35 AM 71.6 °F - 55.4 °F 57% 30.15 in 10.0 mi NE 12.7 mph - N/A   Clear
2:55 AM 73.4 °F - 55.4 °F 53% 30.16 in 10.0 mi NNE 10.4 mph - N/A   Clear
3:15 AM 73.4 °F - 55.4 °F 53% 30.17 in 10.0 mi NNE 10.4 mph - N/A   Clear
3:35 AM 73.4 °F - 55.4 °F 53% 30.17 in 10.0 mi NE 10.4 mph - N/A   Clear
3:55 AM 71.6 °F - 55.4 °F 57% 30.17 in 10.0 mi NE 9.2 mph - N/A   Clear
4:15 AM 71.6 °F - 55.4 °F 57% 30.17 in 10.0 mi NE 6.9 mph - N/A   Clear
4:35 AM 71.6 °F - 55.4 °F 57% 30.17 in 10.0 mi NE 8.1 mph - N/A   Clear
4:55 AM 69.8 °F - 55.4 °F 60% 30.18 in 10.0 mi NNE 9.2 mph - N/A   Clear
5:15 AM 71.6 °F - 53.6 °F 53% 30.18 in 10.0 mi NNE 10.4 mph - N/A   Clear
5:35 AM 71.6 °F - 53.6 °F 53% 30.19 in 10.0 mi NNE 9.2 mph - N/A   Clear
5:55 AM 69.8 °F - 53.6 °F 56% 30.19 in 10.0 mi NNE 9.2 mph - N/A   Clear
6:15 AM 71.6 °F - 53.6 °F 53% 30.20 in 10.0 mi NNE 9.2 mph - N/A   Clear
6:35 AM 71.6 °F - 53.6 °F 53% 30.21 in 10.0 mi NNE 9.2 mph - N/A   Clear
6:55 AM 71.6 °F - 53.6 °F 53% 30.21 in 10.0 mi NNE 10.4 mph - N/A   Clear
7:15 AM 73.4 °F - 53.6 °F 50% 30.21 in 10.0 mi NNE 6.9 mph - N/A   Clear
7:35 AM 75.2 °F - 53.6 °F 47% 30.21 in 10.0 mi NNE 8.1 mph - N/A   Clear
7:55 AM 75.2 °F - 55.4 °F 50% 30.21 in 10.0 mi NNE 6.9 mph - N/A   Clear
8:15 AM 78.8 °F - 55.4 °F 44% 30.21 in 10.0 mi NNE 6.9 mph - N/A   Clear
8:35 AM 80.6 °F 80.5 °F 55.4 °F 42% 30.21 in 10.0 mi ENE 3.5 mph - N/A   Scattered Clouds
8:55 AM 82.4 °F 81.7 °F 55.4 °F 39% 30.21 in 10.0 mi ESE 3.5 mph - N/A   Scattered Clouds
9:15 AM 82.4 °F 82.0 °F 57.2 °F 42% 30.21 in 10.0 mi ESE 3.5 mph - N/A   Clear
9:35 AM 86.0 °F 85.4 °F 59.0 °F 40% 30.21 in 10.0 mi SSE 4.6 mph - N/A   Clear
9:50 AM 86.0 °F 85.4 °F 59.0 °F 40% 30.21 in 10.0 mi SSE 4.6 mph - N/A   Clear
10:35 AM 87.8 °F 86.5 °F 57.2 °F 35% 30.21 in 10.0 mi SSW 5.8 mph - N/A   Clear
10:55 AM 87.8 °F 86.5 °F 57.2 °F 35% 30.21 in 10.0 mi Calm Calm - N/A   Clear
11:15 AM 87.8 °F 87.1 °F 59.0 °F 38% 30.19 in 10.0 mi SSE 4.6 mph - N/A   Clear
11:35 AM 89.6 °F 88.9 °F 59.0 °F 36% 30.19 in 10.0 mi SSE 3.5 mph - N/A   Clear
11:55 AM 89.6 °F 88.1 °F 57.2 °F 33% 30.19 in 10.0 mi South 8.1 mph - N/A   Clear
12:15 PM 91.4 °F 89.4 °F 55.4 °F 29% 30.19 in 10.0 mi SSE 3.5 mph - N/A   Clear
12:35 PM 93.2 °F 90.8 °F 53.6 °F 26% 30.18 in 10.0 mi SSE 5.8 mph - N/A   Clear
12:55 PM 95.0 °F 92.7 °F 53.6 °F 25% 30.17 in 10.0 mi SSE 6.9 mph - N/A   Clear
1:15 PM 95.0 °F 93.0 °F 55.4 °F 26% 30.17 in 10.0 mi South 4.6 mph - N/A Thunderstorm Clear
1:35 PM 96.8 °F 95.1 °F 55.4 °F 25% 30.15 in 10.0 mi South 9.2 mph - N/A   Clear
1:55 PM 96.8 °F 94.4 °F 53.6 °F 23% 30.15 in 10.0 mi SSE 5.8 mph - N/A   Clear
2:15 PM 96.8 °F 94.4 °F 53.6 °F 23% 30.14 in 10.0 mi SSW 8.1 mph - N/A Thunderstorm Clear
2:35 PM 96.8 °F 94.4 °F 53.6 °F 23% 30.13 in 10.0 mi ESE 8.1 mph - N/A   Clear
3:00 PM 98.6 °F 97.2 °F 55.4 °F 24% 30.12 in 10.0 mi SSE 11.5 mph 17.3 mph N/A   Clear
3:15 PM 96.8 °F 94.4 °F 53.6 °F 23% 30.12 in 10.0 mi SW 8.1 mph - N/A   Clear
4:00 PM 86.0 °F 84.9 °F 57.2 °F 37% 30.11 in 7.0 mi East 15.0 mph 28.8 mph N/A Thunderstorm Thunderstorm
4:15 PM 80.6 °F 80.8 °F 57.2 °F 45% 30.11 in 10.0 mi East 18.4 mph - N/A Thunderstorm Thunderstorm
4:35 PM 78.8 °F - 62.6 °F 57% 30.15 in 4.0 mi North 5.8 mph - N/A Rain , Thunderstorm Heavy Thunderstorms and Rain
4:55 PM 69.8 °F - 62.6 °F 78% 30.13 in 4.0 mi ENE 8.1 mph 11.5 mph 0.15 in Rain , Thunderstorm Rain
7:30 PM 69.8 °F - 64.4 °F 83% 30.17 in 10.0 mi NNE 6.9 mph - N/A Rain Light Rain
7:55 PM 68.0 °F - 62.6 °F 83% 30.19 in 10.0 mi SSW 4.6 mph - N/A Rain Light Rain
8:15 PM 68.0 °F - 64.4 °F 88% 30.19 in 10.0 mi East 8.1 mph - N/A Rain Light Rain
8:55 PM 69.8 °F - 62.6 °F 78% 30.18 in 10.0 mi NE 16.1 mph 21.9 mph N/A Rain Light Rain
9:15 PM 69.8 °F - 60.8 °F 73% 30.18 in 10.0 mi NNE 16.1 mph - N/A   Mostly Cloudy
9:35 PM 73.4 °F - 57.2 °F 57% 30.18 in 10.0 mi NE 17.3 mph - N/A   Scattered Clouds
9:55 PM 69.8 °F - 60.8 °F 73% 30.20 in 10.0 mi Calm Calm - N/A   Mostly Cloudy
10:15 PM 69.8 °F - 60.8 °F 73% 30.21 in 10.0 mi Calm Calm - N/A   Mostly Cloudy
10:35 PM 69.8 °F - 60.8 °F 73% 30.21 in 10.0 mi NE 6.9 mph - N/A   Scattered Clouds
10:55 PM 71.6 °F - 57.2 °F 60% 30.20 in 10.0 mi ENE 5.8 mph - N/A   Clear
11:15 PM 71.6 °F - 59.0 °F 64% 30.21 in 10.0 mi North 9.2 mph - N/A   Clear
11:35 PM 71.6 °F - 59.0 °F 64% 30.20 in 10.0 mi NNE 3.5 mph - N/A   Clear
11:55 PM 71.6 °F - 59.0 °F 64% 30.19 in 10.0 mi North 8.1 mph - N/A   Clear